Préparation du vol

Réserver un ULM chez EFU                     Découvrir nos appareils                     Coordonnées de l'école

Available data for LFPN from the past hour

METAR
LFPN 171830Z AUTO 00000KT CAVOK 03/01 Q1023 TEMPO 3000 BR
TAF
TAF LFPN 171700Z 1718/1803 VRB02KT CAVOK TEMPO 1718/1803 3000 BR PROB40 TEMPO 1723/1803 0900 FG VV///

Pour avoir des informations détaillée sur la météo à venir vous pouvez consulter Aeroweb

prevision des pluies

Nota : Heuro locale = heure CET

ATISATIS Étampes129.900
SOLÉtampes sol121.850
TWRÉtampes tour119.050
VDFÉtampes gonio119.050

OLIVIA

Outil en Ligne Intégré de Visualisation d'Informations Aéronautiques

OLIVIA